Year,Month,Day,Hour,Minute,Value (Times are PST for temperature in C)
2008,12,08,09,08,4.90
2008,12,08,09,09,4.90
2008,12,08,09,10,4.90
2008,12,08,09,11,4.90
2008,12,08,09,12,5.00
2008,12,08,09,13,5.10
2008,12,08,09,14,5.10
2008,12,08,09,15,5.10
2008,12,08,09,16,5.10
2008,12,08,09,17,5.10
2008,12,08,09,18,5.10
2008,12,08,09,19,5.10
2008,12,08,09,20,5.10
2008,12,08,09,21,5.10
2008,12,08,09,22,5.10
2008,12,08,09,23,5.10
2008,12,08,09,24,5.20
2008,12,08,09,25,5.20
2008,12,08,09,26,5.20
2008,12,08,09,27,5.30
2008,12,08,09,28,5.30
2008,12,08,09,29,5.30
2008,12,08,09,30,5.30
2008,12,08,09,31,5.30
2008,12,08,09,32,5.30
2008,12,08,09,33,5.30
2008,12,08,09,34,5.30
2008,12,08,09,35,5.40
2008,12,08,09,36,5.40
2008,12,08,09,37,5.50
2008,12,08,09,38,5.50
2008,12,08,09,39,5.50
2008,12,08,09,40,5.50
2008,12,08,09,41,5.60
2008,12,08,09,42,5.60
2008,12,08,09,43,5.60
2008,12,08,09,44,5.70
2008,12,08,09,45,5.70
2008,12,08,09,46,5.70
2008,12,08,09,47,5.70
2008,12,08,09,48,5.70
2008,12,08,09,49,5.70
2008,12,08,09,50,5.70
2008,12,08,09,51,5.80
2008,12,08,09,52,5.80
2008,12,08,09,53,5.80
2008,12,08,09,54,5.80
2008,12,08,09,55,5.80
2008,12,08,09,56,5.90
2008,12,08,09,57,5.90
2008,12,08,09,58,6.00
2008,12,08,09,59,6.00
2008,12,08,10,00,6.10
2008,12,08,10,01,6.10
2008,12,08,10,02,6.20
2008,12,08,10,03,6.20
2008,12,08,10,04,6.20
2008,12,08,10,05,6.20
2008,12,08,10,06,6.20
2008,12,08,10,07,6.20
2008,12,08,10,08,6.20
2008,12,08,10,09,6.20
2008,12,08,10,10,6.30
2008,12,08,10,11,6.30
2008,12,08,10,12,6.30
2008,12,08,10,13,6.40
2008,12,08,10,14,6.40
2008,12,08,10,15,6.40
2008,12,08,10,16,6.50
2008,12,08,10,17,6.60
2008,12,08,10,18,6.60
2008,12,08,10,19,6.70
2008,12,08,10,20,6.70
2008,12,08,10,21,6.80
2008,12,08,10,22,6.80
2008,12,08,10,23,6.80
2008,12,08,10,24,6.90
2008,12,08,10,25,7.00
2008,12,08,10,26,7.00
2008,12,08,10,27,7.10
2008,12,08,10,28,7.10
2008,12,08,10,29,7.10
2008,12,08,10,30,7.00
2008,12,08,10,31,6.90
2008,12,08,10,32,6.90
2008,12,08,10,33,6.90
2008,12,08,10,34,6.90
2008,12,08,10,35,6.90
2008,12,08,10,36,6.90
2008,12,08,10,37,6.90
2008,12,08,10,38,6.90
2008,12,08,10,39,7.00
2008,12,08,10,40,7.00
2008,12,08,10,41,7.10
2008,12,08,10,42,7.10
2008,12,08,10,43,7.20
2008,12,08,10,44,7.20
2008,12,08,10,45,7.20
2008,12,08,10,46,7.20
2008,12,08,10,47,7.10
2008,12,08,10,48,7.10
2008,12,08,10,49,7.10
2008,12,08,10,50,7.10
2008,12,08,10,51,7.10
2008,12,08,10,52,7.20
2008,12,08,10,53,7.10
2008,12,08,10,54,7.20
2008,12,08,10,55,7.20
2008,12,08,10,56,7.20
2008,12,08,10,57,7.10
2008,12,08,10,58,7.10
2008,12,08,10,59,7.10
2008,12,08,11,00,7.10
2008,12,08,11,01,7.20
2008,12,08,11,02,7.10
2008,12,08,11,03,7.10
2008,12,08,11,04,7.10
2008,12,08,11,05,7.10
2008,12,08,11,06,7.20
2008,12,08,11,07,7.20
2008,12,08,11,08,7.20
2008,12,08,11,09,7.30
2008,12,08,11,10,7.30
2008,12,08,11,11,7.30
2008,12,08,11,12,7.30
2008,12,08,11,13,7.30
2008,12,08,11,14,7.30
2008,12,08,11,15,7.30
2008,12,08,11,16,7.30
2008,12,08,11,17,7.30
2008,12,08,11,18,7.30
2008,12,08,11,19,7.30
2008,12,08,11,20,7.30
2008,12,08,11,21,7.20
2008,12,08,11,22,7.20
2008,12,08,11,23,7.20
2008,12,08,11,24,7.20
2008,12,08,11,25,7.20
2008,12,08,11,26,7.20
2008,12,08,11,27,7.30
2008,12,08,11,28,7.30
2008,12,08,11,29,7.30
2008,12,08,11,30,7.30
2008,12,08,11,31,7.30
2008,12,08,11,32,7.40
2008,12,08,11,33,7.40
2008,12,08,11,34,7.50
2008,12,08,11,35,7.50
2008,12,08,11,36,7.50
2008,12,08,11,37,7.50
2008,12,08,11,38,7.60
2008,12,08,11,39,7.60
2008,12,08,11,40,7.60
2008,12,08,11,41,7.60
2008,12,08,11,42,7.50
2008,12,08,11,43,7.50
2008,12,08,11,44,7.60
2008,12,08,11,45,7.50
2008,12,08,11,46,7.50
2008,12,08,11,47,7.60
2008,12,08,11,48,7.60
2008,12,08,11,49,7.60
2008,12,08,11,50,7.60
2008,12,08,11,51,7.50
2008,12,08,11,52,7.50
2008,12,08,11,53,7.50
2008,12,08,11,54,7.50
2008,12,08,11,55,7.50
2008,12,08,11,56,7.50
2008,12,08,11,57,7.50
2008,12,08,11,58,7.40
2008,12,08,11,59,7.40
2008,12,08,12,00,7.40
2008,12,08,12,01,7.30
2008,12,08,12,02,7.30
2008,12,08,12,03,7.30
2008,12,08,12,04,7.30
2008,12,08,12,05,7.30
2008,12,08,12,06,7.30
2008,12,08,12,07,7.30
2008,12,08,12,08,7.30
2008,12,08,12,09,7.40
2008,12,08,12,10,7.40
2008,12,08,12,11,7.40
2008,12,08,12,12,7.50
2008,12,08,12,13,7.50
2008,12,08,12,14,7.60
2008,12,08,12,15,7.60
2008,12,08,12,16,7.60
2008,12,08,12,17,7.60
2008,12,08,12,18,7.60
2008,12,08,12,19,7.60
2008,12,08,12,20,7.60
2008,12,08,12,21,7.60
2008,12,08,12,22,7.60
2008,12,08,12,23,7.60
2008,12,08,12,24,7.70
2008,12,08,12,25,7.70
2008,12,08,12,26,7.60
2008,12,08,12,27,7.60
2008,12,08,12,28,7.60
2008,12,08,12,29,7.50
2008,12,08,12,30,7.50
2008,12,08,12,31,7.50
2008,12,08,12,32,7.50
2008,12,08,12,33,7.60
2008,12,08,12,34,7.60
2008,12,08,12,35,7.60
2008,12,08,12,36,7.60
2008,12,08,12,37,7.60
2008,12,08,12,38,7.70
2008,12,08,12,39,7.70
2008,12,08,12,40,7.70
2008,12,08,12,41,7.70
2008,12,08,12,42,7.70
2008,12,08,12,43,7.60
2008,12,08,12,44,7.60
2008,12,08,12,45,7.60
2008,12,08,12,46,7.60
2008,12,08,12,47,7.60
2008,12,08,12,48,7.60
2008,12,08,12,49,7.60
2008,12,08,12,50,7.60
2008,12,08,12,51,7.70
2008,12,08,12,52,7.70
2008,12,08,12,53,7.70
2008,12,08,12,54,7.70
2008,12,08,12,55,7.70
2008,12,08,12,56,7.70
2008,12,08,12,57,7.70
2008,12,08,12,58,7.70
2008,12,08,12,59,7.70
2008,12,08,13,00,7.70
2008,12,08,13,01,7.70
2008,12,08,13,02,7.60
2008,12,08,13,03,7.60
2008,12,08,13,04,7.70
2008,12,08,13,05,7.70
2008,12,08,13,06,7.70
2008,12,08,13,07,7.70
2008,12,08,13,08,7.60
2008,12,08,13,09,7.60
2008,12,08,13,10,7.60
2008,12,08,13,11,7.60
2008,12,08,13,12,7.60
2008,12,08,13,13,7.60
2008,12,08,13,14,7.70
2008,12,08,13,15,7.70
2008,12,08,13,16,7.70
2008,12,08,13,17,7.70
2008,12,08,13,18,7.70
2008,12,08,13,19,7.80
2008,12,08,13,20,7.80
2008,12,08,13,21,7.80
2008,12,08,13,22,7.70
2008,12,08,13,23,7.70
2008,12,08,13,24,7.80
2008,12,08,13,25,7.80
2008,12,08,13,26,7.80
2008,12,08,13,27,7.80
2008,12,08,13,28,7.80
2008,12,08,13,29,7.80
2008,12,08,13,30,7.80
2008,12,08,13,31,7.80
2008,12,08,13,32,7.80
2008,12,08,13,33,7.80
2008,12,08,13,34,7.80
2008,12,08,13,35,7.90
2008,12,08,13,36,7.90
2008,12,08,13,37,7.90
2008,12,08,13,38,7.90
2008,12,08,13,39,7.90
2008,12,08,13,40,7.90
2008,12,08,13,41,7.90
2008,12,08,13,42,7.90
2008,12,08,13,43,7.90
2008,12,08,13,44,7.90
2008,12,08,13,45,7.90
2008,12,08,13,46,8.00
2008,12,08,13,47,8.00
2008,12,08,13,48,8.00
2008,12,08,13,49,8.00
2008,12,08,13,50,8.00
2008,12,08,13,51,8.00
2008,12,08,13,52,8.00
2008,12,08,13,53,8.10
2008,12,08,13,54,8.10
2008,12,08,13,55,8.10
2008,12,08,13,56,8.10
2008,12,08,13,57,8.10
2008,12,08,13,58,8.10
2008,12,08,13,59,8.10
2008,12,08,14,00,8.10
2008,12,08,14,01,8.10
2008,12,08,14,02,8.10
2008,12,08,14,03,8.10
2008,12,08,14,04,8.10
2008,12,08,14,05,8.10
2008,12,08,14,06,8.10
2008,12,08,14,07,8.10
2008,12,08,14,08,8.10
2008,12,08,14,09,8.20
2008,12,08,14,10,8.20
2008,12,08,14,11,8.20
2008,12,08,14,12,8.20
2008,12,08,14,13,8.20
2008,12,08,14,14,8.20
2008,12,08,14,15,8.20
2008,12,08,14,16,8.30
2008,12,08,14,17,8.30
2008,12,08,14,18,8.30
2008,12,08,14,19,8.40
2008,12,08,14,20,8.50
2008,12,08,14,21,8.50
2008,12,08,14,22,8.60
2008,12,08,14,23,8.60
2008,12,08,14,24,8.60
2008,12,08,14,25,8.60
2008,12,08,14,26,8.50
2008,12,08,14,27,8.50
2008,12,08,14,28,8.50
2008,12,08,14,29,8.50
2008,12,08,14,30,8.40
2008,12,08,14,31,8.40
2008,12,08,14,32,8.40
2008,12,08,14,33,8.40
2008,12,08,14,34,8.40
2008,12,08,14,35,8.40
2008,12,08,14,36,8.40
2008,12,08,14,37,8.30
2008,12,08,14,38,8.30
2008,12,08,14,39,8.30
2008,12,08,14,40,8.30
2008,12,08,14,41,8.30
2008,12,08,14,42,8.30
2008,12,08,14,43,8.30
2008,12,08,14,44,8.30
2008,12,08,14,45,8.30
2008,12,08,14,46,8.30
2008,12,08,14,47,8.30
2008,12,08,14,48,8.20
2008,12,08,14,49,8.20
2008,12,08,14,50,8.20
2008,12,08,14,51,8.20
2008,12,08,14,52,8.20
2008,12,08,14,53,8.20
2008,12,08,14,54,8.20
2008,12,08,14,55,8.20
2008,12,08,14,56,8.20
2008,12,08,14,57,8.20
2008,12,08,14,58,8.20
2008,12,08,14,59,8.20
2008,12,08,15,00,8.20
2008,12,08,15,01,8.20
2008,12,08,15,02,8.20
2008,12,08,15,03,8.20
2008,12,08,15,04,8.20
2008,12,08,15,05,8.20
2008,12,08,15,06,8.20
2008,12,08,15,07,8.20
2008,12,08,15,08,8.20
2008,12,08,15,09,8.20
2008,12,08,15,10,8.20
2008,12,08,15,11,8.20
2008,12,08,15,12,8.10
2008,12,08,15,13,8.10
2008,12,08,15,14,8.10
2008,12,08,15,15,8.00
2008,12,08,15,16,8.00
2008,12,08,15,17,8.00
2008,12,08,15,18,7.90
2008,12,08,15,19,7.90
2008,12,08,15,20,7.90
2008,12,08,15,21,7.90
2008,12,08,15,22,7.90
2008,12,08,15,23,7.90
2008,12,08,15,24,7.80
2008,12,08,15,25,7.80
2008,12,08,15,26,7.80
2008,12,08,15,27,7.80
2008,12,08,15,28,7.80
2008,12,08,15,29,7.80
2008,12,08,15,30,7.80
2008,12,08,15,31,7.80
2008,12,08,15,32,7.70
2008,12,08,15,33,7.70
2008,12,08,15,34,7.70
2008,12,08,15,35,7.60
2008,12,08,15,36,7.60
2008,12,08,15,37,7.60
2008,12,08,15,38,7.60
2008,12,08,15,39,7.60
2008,12,08,15,40,7.60
2008,12,08,15,41,7.60
2008,12,08,15,42,7.50
2008,12,08,15,43,7.50
2008,12,08,15,44,7.50
2008,12,08,15,45,7.50
2008,12,08,15,46,7.50
2008,12,08,15,47,7.50
2008,12,08,15,48,7.40
2008,12,08,15,49,7.40
2008,12,08,15,50,7.40
2008,12,08,15,51,7.40
2008,12,08,15,52,7.40
2008,12,08,15,53,7.40
2008,12,08,15,54,7.40
2008,12,08,15,55,7.40
2008,12,08,15,56,7.30
2008,12,08,15,57,7.30
2008,12,08,15,58,7.30
2008,12,08,15,59,7.30
2008,12,08,16,00,7.30
2008,12,08,16,01,7.30
2008,12,08,16,02,7.30
2008,12,08,16,03,7.30
2008,12,08,16,04,7.30
2008,12,08,16,05,7.30
